Location: Newark
(52.5667°N, 8.8000°W)
Time: 06:38:57
(UTC+00:00)

N. Korean satellite - Pass Details

Date: 02 February 2020
Orbit: 456 x 505 km, 97.2° (Epoch: 27 February)

Event Time Altitude Azimuth Distance (km) Brightness Sun altitude
Rises 05:24:16 0° 28° (NNE) 2,568 10.7 -26.2°
Reaches altitude 10° 05:27:00 10° 51° (NE) 1,691 10.0 -25.8°
Maximum altitude 05:29:18 16° 90° (E) 1,367 9.7 -25.4°
Drops below altitude 10° 05:31:36 10° 129° (SE) 1,697 9.9 -25.1°
Sets 05:34:21 0° 152° (SSE) 2,583 10.6 -24.7°
